sat.trackr.live / text

‹ back to catalog

STARLINK-34836

NORAD 65399 · 2025-191W

PAYLOAD ACTIVE UNKNOWN

§ Identity

Operator
Country
US
Launch date
2025-08-30
Launch site
AFWTR
Launch vehicle
Mass (kg)
RCS (m²)

Purposes: comms

External: N2YO · Heavens-Above · Gunter

§ Orbital elements

Epoch: 2026-09-20T21:05:39.888960Z

Period
93.91 min
Inclination
97.2852°
Eccentricity
0.0001553
Mean motion
15.33445244 rev/d
Perigee alt
464.5 km
Apogee alt
466.6 km
Semi-major
6,843.7 km
B*
4.2525e-4
RAAN
129.8550°
Arg perigee
32.4594°
Mean anomaly
327.6744°
Rev number
5,969

§ Raw data

STARLINK-348361 65399U 25191W   26263.87893390  .00013679  00000+0  42525-3 0  99922 65399  97.2852 129.8550 0001553  32.4594 327.6744 15.33445244 59695

JSON: /api/v1/satellites/65399 · /tle

For live sub-satellite position, see the globe view (requires WebGL).

§ Visibility from observer

Set your observer location to see the next 7 days of passes ≥ 10°. The values pass through the URL so the page stays shareable.

No JS? Fill the form by hand. The geolocation button needs JavaScript.